This is the latest recevied weather packets stored in our database for station/object JA0BES-13. If no packets are shown the sender has not sent any weather packets the latest 10 day(s).
| Time | Temp. | Humidity | Pressure | Rain* | Wind** | Luminosity | Snow |
|---|---|---|---|---|---|---|---|
| 1777796008 | 21.11° C | 49% | 1003.2 hPa | 0 mm | - | - | - |
| 1777795407 | 21.11° C | 49% | 1003.3 hPa | 0 mm | - | - | - |
| 1777794807 | 21.67° C | 46% | 1003.2 hPa | 0 mm | - | - | - |
| 1777794206 | 21.67° C | 46% | 1003.1 hPa | 0 mm | - | - | - |
| 1777793606 | 22.22° C | 44% | 1003.1 hPa | 0 mm | - | - | - |
| 1777793005 | 22.78° C | 41% | 1003.2 hPa | 0 mm | - | - | - |
| 1777792405 | 22.78° C | 40% | 1003.3 hPa | 0 mm | - | - | - |
| 1777791805 | 23.33° C | 37% | 1003.1 hPa | 0 mm | - | - | - |
| 1777791205 | 23.33° C | 36% | 1003 hPa | 0 mm | - | - | - |
| 1777790604 | 23.33° C | 35% | 1002.9 hPa | 0 mm | - | - | - |
| 1777790004 | 23.33° C | 35% | 1002.7 hPa | 0 mm | - | - | - |
| 1777789403 | 23.89° C | 35% | 1002.7 hPa | 0 mm | - | - | - |
| 1777788803 | 23.89° C | 34% | 1002.9 hPa | 0 mm | - | - | - |
| 1777788203 | 24.44° C | 36% | 1002.8 hPa | 0 mm | - | - | - |
| 1777787603 | 24.44° C | 37% | 1002.7 hPa | 0 mm | - | - | - |
| 1777787002 | 24.44° C | 37% | 1002.8 hPa | 0 mm | - | - | - |
| 1777786402 | 24.44° C | 36% | 1003.2 hPa | 0 mm | - | - | - |
| 1777785801 | 24.44° C | 36% | 1003 hPa | 0 mm | - | - | - |
| 1777785201 | 24.44° C | 36% | 1002.9 hPa | 0 mm | - | - | - |
| 1777784601 | 25° C | 35% | 1002.9 hPa | 0 mm | - | - | - |
| 1777784000 | 25° C | 35% | 1003.2 hPa | 0 mm | - | - | - |
| 1777783400 | 25.56° C | 36% | 1003.1 hPa | 0 mm | - | - | - |
| 1777782800 | 25.56° C | 35% | 1003.3 hPa | 0 mm | - | - | - |
| 1777782199 | 25.56° C | 36% | 1003.4 hPa | 0 mm | - | - | - |
| 1777781599 | 25° C | 37% | 1003.7 hPa | 0 mm | - | - | - |
* Rain since midnight (hover to see other rain measurements)
** Current wind speed in m/s (hover to see current wind gust speed)